{"data":{"norad_id":58008,"epoch":"2026-09-20T20:57:41.503392Z","epoch_age_seconds":105314,"freshness":"FRESH","line1":"1 58008U 23153T   26263.87339703  .00001160  00000+0  51673-4 0  9997","line2":"2 58008  43.0027  45.0528 0001519 287.1726  72.8960 15.27577926164747","mean_motion":15.27577926,"eccentricity":0.0001519,"inclination_deg":43.0027,"raan_deg":45.0528,"arg_perigee_deg":287.1726,"mean_anomaly_deg":72.896,"bstar":5.1673e-5,"rev_number":16474,"period_min":94.266876700076,"perigee_km":482.01309123746,"apogee_km":484.09752146013,"semimajor_km":6861.1923063488,"source":"CELESTRAK","updated_at":"2026-09-21T09:00:33.756274Z"}}